Wind_Speed
6 6 6 6 6 6 7 7 6 7 7 7 7 7 6 6 5 5 4 4 4 3 4 4 4 5 5 5 5 4 3 3 3 3 3 3 3 3 2 2 2 2 3
7 7 7 6 6 7 7 7 7 7 7 7 6 6 6 6 5 5 4 4 4 4 4 4 5 5 5 5 4 3 3 2 2 2 2 3 3 3 3 3 2 3 4
8 8 6 7 7 7 7 7 7 7 7 7 6 6 5 5 5 4 4 4 4 4 4 4 4 4 5 4 3 3 3 3 2 2 2 3 3 3 3 3 3 3 4
9 8 7 7 8 8 8 8 7 7 7 6 6 5 5 5 5 4 4 4 4 5 4 4 4 4 4 3 3 3 2 2 2 2 2 3 3 3 3 3 3 3 3
10 9 8 8 8 8 9 8 8 7 7 6 5 5 5 5 4 4 4 3 4 4 4 4 4 4 3 3 3 3 2 2 1 2 2 2 3 4 3 3 3 3 3
10 10 9 9 8 8 9 8 8 7 6 6 5 5 4 4 3 3 3 3 3 3 3 3 3 3 3 2 2 2 2 1 2 2 2 3 3 3 3 3 3 2 2
11 11 11 11 10 10 10 9 9 8 7 6 5 4 4 3 3 3 3 3 3 4 4 4 3 3 2 2 2 2 1 1 2 3 3 3 2 2 3 3 3 3 3
11 11 11 11 10 10 9 9 9 8 7 6 5 4 4 4 4 4 4 4 3 3 3 3 3 2 2 2 2 2 2 2 2 3 3 2 2 3 3 3 3 3 3
11 11 10 10 9 9 9 8 8 8 7 7 6 6 6 5 5 4 4 3 3 2 2 2 2 2 2 2 2 2 2 2 3 3 3 3 3 3 3 3 3 3 3
11 10 10 10 9 8 8 8 8 7 7 7 6 6 6 6 5 4 3 3 2 1 1 2 2 2 2 2 1 1 2 2 2 3 3 3 2 2 2 2 2 2 2
11 10 10 10 9 9 8 8 8 7 7 7 6 5 5 5 5 4 3 2 2 1 1 1 2 1 2 2 1 1 1 1 2 2 2 2 2 2 2 2 1 1 1
12 10 9 9 9 8 8 7 8 7 7 7 6 6 6 5 5 4 3 2 2 2 1 1 1 1 1 1 1 1 1 1 1 1 1 2 1 1 0 1 0 0 0
12 11 10 9 9 8 7 7 7 7 7 6 6 7 6 5 4 4 4 3 2 2 1 1 1 1 1 1 1 1 0 1 1 1 1 1 1 1 0 0 0 1 1
12 11 10 9 8 8 7 7 7 7 6 6 5 6 6 5 4 4 4 3 2 2 2 2 1 1 1 1 0 0 0 1 1 1 1 1 1 0 0 1 1 1 1
11 11 11 9 8 7 7 7 7 7 7 7 6 5 5 5 4 4 3 3 3 2 2 2 2 2 2 1 0 1 1 1 1 1 1 1 1 1 1 1 1 2 1
10 11 10 10 8 7 7 7 6 6 6 6 6 5 5 5 4 4 3 3 3 3 3 3 3 2 1 1 0 1 1 1 2 2 2 2 1 1 2 2 2 2 2
11 11 10 10 9 8 7 6 6 6 6 6 5 5 5 5 5 4 3 2 2 2 2 2 2 1 1 1 2 2 2 2 3 2 3 3 2 2 2 2 2 2 2
10 10 10 9 8 8 7 6 5 5 5 5 5 5 4 4 4 4 3 2 2 1 1 1 1 1 1 2 2 2 2 3 3 3 3 3 3 3 4 4 4 3 3
9 9 9 9 8 7 6 6 5 5 5 5 5 4 4 4 4 5 4 3 2 2 2 2 2 2 2 3 3 3 4 4 4 4 4 4 4 5 5 5 5 5 4
8 9 8 8 8 7 6 6 5 5 5 4 4 4 4 5 5 5 5 4 3 3 3 3 3 4 4 4 4 5 5 5 5 5 5 5 6 6 6 7 7 6 6
7 8 8 8 7 7 7 6 6 5 5 5 5 5 5 5 6 6 6 6 4 4 4 4 4 4 5 5 5 5 6 7 6 7 7 7 7 7 8 8 8 7 7
6 7 7 7 7 7 7 6 6 6 6 6 6 6 6 6 6 6 6 6 6 6 6 6 5 5 5 6 6 6 7 8 8 8 8 8 9 9 9 9 9 9 9
6 7 7 7 7 7 7 7 7 7 7 7 7 7 7 6 6 7 7 7 7 7 7 7 6 6 7 7 7 8 8 8 8 9 9 9 10 11 11 11 11 11 11
6 6 7 7 7 7 7 8 8 7 7 8 8 7 7 7 7 7 7 7 7 7 7 7 8 7 7 7 8 8 9 9 9 10 10 11 12 12 13 13 13 12 12
6 7 7 8 7 8 8 8 8 8 8 8 8 8 8 8 8 7 7 7 7 7 7 7 8 8 8 8 9 9 9 10 10 10 11 12 13 14 14 14 14 14 14
7 7 8 9 9 9 8 9 9 8 9 9 9 9 9 9 9 9 8 8 8 8 8 8 9 9 10 10 10 10 10 11 11 12 12 13 13 14 14 14 14 15 15
Wind_Direction
74 79 81 88 87 85 89 97 115 117 119 122 123 127 131 129 125 123 116 111 112 128 139 136 134 136 134 139 145 142 126 119 122 124 117 105 107 103 101 114 112 122 131
67 79 87 86 88 86 88 96 111 116 123 121 118 119 126 125 120 113 113 114 114 115 126 133 131 132 134 136 139 135 121 111 119 125 115 96 86 84 90 100 112 128 131
66 76 81 77 85 86 92 102 112 118 121 120 118 115 122 123 114 104 101 106 108 108 111 125 125 123 124 125 124 120 113 104 108 114 119 100 78 72 78 93 104 116 127
71 73 71 74 79 89 94 102 106 110 115 118 118 117 119 117 107 104 105 102 101 101 104 106 114 122 123 120 108 106 97 105 103 118 120 92 76 79 77 84 97 110 126
69 71 78 79 86 91 89 94 100 109 105 110 116 120 115 111 106 116 113 108 104 100 105 105 110 116 121 113 101 99 91 91 114 115 119 102 87 86 83 86 98 116 124
73 73 76 79 93 99 95 93 96 97 100 106 120 118 114 110 109 122 124 110 102 95 96 106 112 115 116 118 112 100 98 103 123 109 120 121 97 80 73 80 85 111 128
75 76 77 80 96 99 93 89 90 89 94 104 112 108 104 103 110 118 116 101 94 93 86 79 80 108 121 114 107 84 80 117 124 104 106 110 92 82 82 75 73 96 113
76 78 77 79 88 87 86 83 82 82 83 88 101 98 100 96 105 107 101 95 88 84 83 87 79 102 119 115 105 81 66 90 120 107 102 102 93 87 91 81 76 87 103
77 79 79 80 82 83 80 77 78 79 76 77 82 85 81 81 89 100 89 83 79 82 80 85 90 104 120 121 106 84 80 85 101 107 109 96 90 88 94 86 79 86 99
77 79 80 81 80 80 78 80 82 81 78 77 80 80 77 78 86 92 87 82 76 76 82 97 88 91 94 101 96 88 95 101 101 115 113 97 90 95 103 86 87 95 88
76 78 78 75 77 78 79 81 85 84 80 77 76 74 69 74 76 74 76 80 79 77 74 96 104 84 82 91 110 111 117 110 104 120 116 104 90 86 88 94 102 96 78
69 73 75 75 77 78 77 79 76 75 70 70 71 64 60 65 68 73 79 88 95 88 67 64 69 78 85 86 83 98 168 176 138 123 122 115 105 92 94 127 93 1 324
66 66 70 75 78 79 77 75 73 69 66 64 66 65 59 61 67 71 75 80 86 79 70 66 48 66 87 90 75 70 103 148 152 168 154 118 90 103 93 73 18 5 348
68 68 67 72 76 75 75 75 74 72 65 61 65 64 61 59 63 61 67 66 82 87 71 58 55 68 93 125 137 86 11 109 135 173 192 178 176 156 38 19 17 10 346
68 68 66 67 72 71 72 74 73 68 60 54 59 62 57 52 54 53 58 68 82 85 68 64 63 73 70 65 224 249 266 277 229 221 242 220 232 341 318 310 320 324 323
66 63 60 61 71 71 75 79 74 63 54 48 50 55 52 47 51 54 57 64 75 81 68 69 63 61 55 61 12 321 287 260 278 255 268 291 290 310 307 300 309 319 312
61 60 58 56 60 66 75 78 73 59 49 40 41 46 47 44 41 40 49 55 59 66 65 57 43 23 23 23 354 329 311 297 294 287 289 293 298 300 300 296 295 307 309
53 55 54 54 57 62 66 72 65 53 43 36 34 32 28 27 22 17 16 25 20 7 16 357 343 357 346 343 326 317 317 324 312 303 297 289 292 294 296 294 290 294 298
50 52 53 53 55 59 59 60 49 39 30 26 23 20 11 4 359 359 358 358 349 324 308 302 305 305 306 313 310 308 310 307 301 292 289 290 290 288 286 289 288 290 291
48 47 48 49 51 52 49 43 34 26 14 6 6 4 355 346 341 342 350 347 330 311 297 296 294 289 292 295 297 298 299 298 290 285 285 289 287 283 281 281 280 282 288
41 39 38 40 41 39 35 29 21 15 6 359 348 338 335 336 332 329 333 339 325 313 301 295 296 288 286 289 291 292 292 290 288 283 278 281 284 284 278 275 276 277 281
24 24 24 26 26 23 17 11 6 3 360 354 345 336 331 329 331 339 335 331 324 309 312 308 301 295 289 288 289 287 287 287 285 285 281 278 278 281 279 278 278 276 275
7 5 6 6 7 5 2 357 352 350 347 346 341 338 336 329 331 333 332 329 323 313 303 297 295 291 292 293 292 291 289 288 284 285 284 282 281 284 280 276 276 281 280
353 349 350 348 350 350 350 347 342 339 339 342 339 329 329 325 324 325 325 324 320 309 302 298 299 293 295 297 296 293 291 287 281 279 279 279 281 283 282 277 276 279 281
338 338 341 335 337 337 334 335 335 332 333 334 335 330 323 322 322 320 317 319 320 313 305 300 300 297 297 295 294 291 287 285 283 280 279 279 281 280 280 279 279 277 280
327 327 329 331 329 331 330 327 327 325 326 326 324 323 321 319 316 316 315 312 309 306 303 301 299 297 293 293 292 290 289 286 281 282 283 282 283 282 281 279 279 277 278
Height
5887 5886 5887 5886 5887 5887 5887 5888 5888 5889 5889 5890 5891 5892 5892 5893 5893 5894 5894 5894 5894 5894 5894 5894 5894 5895 5895 5895 5895 5895 5895 5895 5896 5896 5895 5895 5895 5895 5895 5894 5894 5894 5894
5888 5888 5888 5888 5888 5888 5888 5889 5889 5890 5890 5891 5892 5893 5893 5894 5894 5894 5895 5895 5895 5895 5895 5895 5895 5895 5895 5896 5896 5896 5896 5896 5896 5896 5896 5895 5895 5895 5895 5895 5894 5894 5894
5888 5888 5888 5889 5889 5889 5889 5890 5891 5891 5892 5893 5893 5894 5895 5895 5895 5895 5896 5896 5896 5895 5895 5896 5896 5896 5896 5896 5896 5897 5896 5896 5896 5896 5896 5895 5895 5895 5895 5895 5895 5894 5894
5889 5889 5889 5889 5889 5890 5891 5891 5892 5892 5893 5894 5894 5895 5895 5896 5896 5896 5897 5897 5897 5896 5896 5897 5897 5897 5897 5897 5897 5897 5897 5896 5896 5896 5896 5896 5895 5895 5895 5895 5895 5895 5895
5890 5891 5890 5889 5890 5891 5892 5892 5893 5893 5894 5895 5895 5896 5896 5897 5897 5896 5897 5897 5897 5897 5897 5897 5897 5897 5897 5897 5897 5897 5897 5896 5896 5895 5896 5896 5896 5896 5895 5895 5895 5894 5895
5892 5892 5891 5890 5890 5892 5893 5894 5894 5895 5895 5895 5896 5896 5897 5897 5897 5897 5898 5898 5898 5898 5898 5898 5898 5898 5898 5897 5897 5897 5897 5896 5896 5896 5896 5896 5896 5896 5896 5895 5895 5894 5895
5894 5894 5893 5891 5891 5894 5895 5896 5896 5896 5896 5896 5897 5897 5897 5898 5898 5898 5898 5898 5899 5899 5898 5898 5898 5898 5898 5898 5898 5897 5897 5897 5897 5896 5896 5896 5896 5896 5896 5896 5895 5895 5895
5896 5896 5896 5896 5896 5896 5897 5897 5897 5897 5898 5898 5898 5898 5898 5898 5898 5899 5899 5899 5899 5899 5899 5899 5899 5898 5898 5898 5898 5898 5897 5897 5897 5897 5897 5897 5897 5896 5896 5896 5896 5895 5895
5899 5899 5898 5898 5898 5898 5898 5898 5899 5899 5899 5899 5899 5899 5899 5898 5899 5899 5899 5900 5900 5900 5900 5899 5899 5899 5898 5898 5898 5898 5898 5898 5897 5897 5897 5897 5897 5897 5896 5896 5896 5895 5895
5900 5900 5900 5900 5900 5900 5900 5900 5900 5900 5900 5900 5900 5900 5899 5899 5899 5900 5900 5900 5900 5900 5900 5899 5899 5899 5899 5898 5898 5898 5898 5898 5897 5897 5897 5897 5897 5896 5896 5896 5896 5896 5895
5902 5901 5901 5901 5901 5901 5901 5901 5901 5901 5901 5901 5900 5900 5900 5900 5900 5900 5900 5900 5900 5900 5900 5899 5899 5899 5898 5898 5898 5898 5898 5898 5897 5897 5897 5897 5896 5896 5896 5896 5896 5895 5895
5903 5903 5902 5902 5902 5902 5902 5902 5902 5902 5902 5902 5902 5901 5901 5901 5900 5900 5900 5900 5900 5900 5900 5899 5899 5899 5898 5898 5898 5898 5897 5897 5897 5897 5897 5897 5896 5896 5896 5896 5895 5895 5895
5905 5905 5904 5904 5903 5903 5903 5903 5903 5903 5903 5903 5902 5902 5901 5901 5901 5900 5900 5900 5900 5900 5899 5899 5899 5899 5898 5898 5898 5897 5897 5897 5897 5897 5897 5896 5896 5896 5896 5895 5895 5894 5894
5907 5906 5906 5905 5905 5904 5904 5904 5904 5904 5904 5904 5903 5903 5902 5902 5901 5900 5900 5900 5899 5899 5899 5899 5899 5898 5898 5898 5898 5897 5897 5897 5896 5896 5896 5896 5896 5895 5895 5895 5894 5894 5893
5908 5908 5907 5906 5906 5905 5905 5905 5905 5905 5905 5904 5904 5903 5903 5902 5901 5901 5900 5900 5900 5899 5899 5899 5899 5898 5898 5898 5897 5897 5897 5896 5896 5896 5896 5895 5895 5895 5895 5894 5893 5893 5892
5910 5909 5908 5907 5907 5906 5906 5906 5906 5905 5905 5905 5904 5904 5903 5902 5902 5901 5901 5900 5900 5900 5899 5899 5899 5898 5898 5898 5897 5897 5896 5896 5896 5895 5895 5895 5894 5894 5894 5893 5893 5892 5892
5911 5910 5909 5908 5907 5907 5907 5906 5906 5906 5906 5905 5905 5904 5903 5903 5902 5901 5900 5900 5900 5899 5899 5899 5898 5898 5898 5897 5897 5896 5896 5895 5895 5894 5894 5894 5893 5893 5893 5892 5892 5891 5891
5911 5911 5910 5909 5908 5908 5907 5907 5907 5907 5906 5906 5905 5904 5903 5903 5902 5901 5900 5900 5899 5899 5899 5898 5898 5898 5897 5897 5896 5896 5895 5895 5894 5894 5893 5893 5892 5892 5891 5891 5890 5890 5890
5912 5911 5911 5910 5909 5909 5908 5908 5908 5907 5906 5905 5905 5904 5903 5902 5901 5900 5899 5899 5898 5898 5898 5897 5897 5897 5896 5896 5895 5894 5894 5893 5893 5893 5892 5891 5891 5891 5890 5890 5889 5889 5888
5913 5912 5911 5911 5910 5909 5909 5908 5908 5907 5906 5905 5904 5904 5903 5902 5901 5900 5899 5898 5897 5897 5897 5896 5896 5896 5895 5895 5894 5893 5892 5892 5891 5891 5891 5890 5889 5889 5888 5888 5887 5887 5886
5913 5913 5912 5911 5910 5909 5909 5908 5907 5906 5905 5904 5903 5902 5902 5900 5899 5899 5898 5897 5896 5895 5895 5894 5894 5894 5893 5893 5892 5892 5891 5890 5890 5889 5889 5888 5888 5887 5886 5886 5885 5885 5884
5914 5913 5912 5911 5910 5909 5908 5907 5906 5905 5904 5903 5902 5901 5900 5899 5898 5897 5896 5895 5894 5893 5893 5893 5893 5892 5891 5891 5890 5890 5889 5889 5888 5887 5887 5886 5885 5885 5884 5883 5883 5882 5881
5914 5913 5912 5911 5910 5909 5908 5907 5906 5905 5903 5902 5901 5900 5898 5897 5896 5895 5894 5893 5893 5892 5892 5891 5890 5890 5889 5888 5888 5888 5887 5886 5885 5885 5884 5883 5882 5882 5881 5881 5880 5879 5878
5913 5912 5911 5910 5909 5908 5907 5906 5904 5903 5902 5901 5900 5898 5897 5896 5894 5893 5892 5892 5891 5890 5890 5889 5888 5887 5887 5886 5885 5885 5884 5883 5882 5882 5882 5880 5880 5879 5878 5877 5877 5876 5875
5911 5910 5909 5908 5908 5906 5905 5904 5903 5901 5900 5899 5898 5896 5895 5894 5893 5891 5890 5890 5889 5888 5887 5886 5886 5885 5884 5883 5883 5882 5881 5880 5879 5879 5878 5877 5876 5875 5874 5873 5873 5872 5871
5909 5909 5908 5906 5906 5904 5903 5902 5901 5900 5898 5897 5896 5894 5893 5892 5890 5889 5888 5887 5886 5885 5884 5883 5882 5882 5881 5880 5879 5878 5877 5876 5875 5875 5874 5873 5872 5871 5870 5869 5869 5868 5867